Location: Beddau
(51.5575°N, 3.3561°W)
Time: 17:27:26
(UTC+00:00)

ASTEX 1 - Pass Details

Date: 03 March 2021
Orbit: 720 x 743 km, 92.7° (Epoch: 12 April)

Event Time Altitude Azimuth Distance (km) Brightness Sun altitude
Rises 19:19:21 0° 12° (NNE) 3,153 6.6 -13.5°
Reaches altitude 10° 19:21:53 10° 23° (NNE) 2,224 5.7 -13.9°
Maximum altitude 19:26:15 31° 86° (E) 1,248 4.1 -14.6°
Enters shadow 19:30:13 12° 146° (SE) 2,082 5.4 -15.2°
